When you browse on this site, cookies collect data to enhance your experience and personalize the content and advertising you see.
Visit our Privacy Policy to learn more. By continuing to use the site, you agree to this use of cookies and data.
  • In Hungary
  • List of Countries
  • For 7 days
  • Water Temperature
  • Satellite Maps
  • Weather Map
  • News
  • Weather Widgets
  • user-avatar
    Login

    Hourly Weather Wieruszyce

    Today, 22 May, Wednesday

    Time Temperature Precipitation Wind Pressure Humidity
    00:00 +13°C° 0.4 mm 5 mps 732 mmHg 92%
    01:00 +13°C° 0.4 mm 4 mps 731 mmHg 92%
    02:00 +12°C° 1 mm 4 mps 731 mmHg 93%
    03:00 +12°C° 1 mm 4 mps 731 mmHg 93%
    04:00 +12°C° 1 mm 4 mps 731 mmHg 94%
    05:00 +13°C° 0.8 mm 3 mps 732 mmHg 93%
    06:00 +13°C° 0.8 mm 3 mps 732 mmHg 93%
    07:00 +14°C° 0.8 mm 3 mps 732 mmHg 93%
    08:00 +14°C° 0.7 mm 3 mps 732 mmHg 92%
    09:00 +14°C° 0.7 mm 3 mps 732 mmHg 91%
    10:00 +16°C° 0.7 mm 3 mps 733 mmHg 90%
    11:00 +16°C° 0.9 mm 3 mps 733 mmHg 89%
    12:00 +16°C° 0.9 mm 3 mps 733 mmHg 88%
    13:00 +17°C° 0.9 mm 3 mps 733 mmHg 87%
    14:00 +17°C° 0.9 mm 3 mps 733 mmHg 86%
    15:00 +17°C° 0.9 mm 4 mps 733 mmHg 86%
    16:00 +17°C° 0.9 mm 4 mps 733 mmHg 85%
    17:00 +17°C° 1.5 mm 4 mps 733 mmHg 87%
    18:00 +15°C° 1.5 mm 5 mps 733 mmHg 89%
    19:00 +14°C° 1.5 mm 5 mps 733 mmHg 91%
    20:00 +14°C° 1.6 mm 5 mps 734 mmHg 93%
    21:00 +14°C° 1.6 mm 5 mps 734 mmHg 94%
    22:00 +14°C° 1.6 mm 5 mps 735 mmHg 96%
    23:00 +14°C° 0.7 mm 5 mps 735 mmHg 96%

    Tomorrow, 23 May, Thursday

    Time Temperature Precipitation Wind Pressure Humidity
    00:00 +14°C° 0.7 mm 5 mps 735 mmHg 96%
    01:00 +14°C° 0.7 mm 5 mps 735 mmHg 96%
    02:00 +13°C° 1 mm 5 mps 736 mmHg 96%
    03:00 +13°C° 1 mm 4 mps 736 mmHg 96%
    04:00 +13°C° 1 mm 4 mps 736 mmHg 96%
    05:00 +13°C° 1.4 mm 4 mps 736 mmHg 96%
    06:00 +13°C° 1.4 mm 4 mps 736 mmHg 96%
    07:00 +13°C° 1.4 mm 4 mps 737 mmHg 96%
    08:00 +13°C° 1.6 mm 4 mps 737 mmHg 96%
    09:00 +13°C° 1.6 mm 4 mps 737 mmHg 96%
    10:00 +13°C° 1.6 mm 4 mps 738 mmHg 96%
    11:00 +13°C° 1 mm 4 mps 738 mmHg 95%
    12:00 +13°C° 1 mm 5 mps 738 mmHg 95%
    13:00 +12°C° 1 mm 5 mps 738 mmHg 95%
    14:00 +12°C° 0.5 mm 5 mps 738 mmHg 95%
    15:00 +12°C° 0.5 mm 5 mps 739 mmHg 94%
    16:00 +12°C° 0.5 mm 5 mps 739 mmHg 94%
    17:00 +12°C° 0.5 mm 5 mps 739 mmHg 95%
    18:00 +10°C° 0.5 mm 5 mps 739 mmHg 95%
    19:00 +11°C° 0.5 mm 4 mps 739 mmHg 95%
    20:00 +11°C° 0.3 mm 4 mps 739 mmHg 94%
    21:00 +11°C° 0.3 mm 4 mps 740 mmHg 94%
    22:00 +11°C° 0.3 mm 3 mps 740 mmHg 93%
    23:00 +11°C° 0.1 mm 3 mps 740 mmHg 93%

    Day after tomorrow, 24 May, Friday

    Time Temperature Precipitation Wind Pressure Humidity
    00:00 +11°C° 0.1 mm 3 mps 740 mmHg 93%
    01:00 +11°C° 0.1 mm 3 mps 740 mmHg 93%
    02:00 +11°C° 0.1 mm 3 mps 740 mmHg 92%
    03:00 +10°C° 0.1 mm 3 mps 740 mmHg 92%
    04:00 +10°C° 0.1 mm 2 mps 740 mmHg 92%
    05:00 +11°C° 0 mm 3 mps 740 mmHg 89%
    06:00 +11°C° 0 mm 3 mps 740 mmHg 87%
    07:00 +11°C° 0 mm 3 mps 740 mmHg 84%
    08:00 +12°C° 0 mm 3 mps 740 mmHg 75%
    09:00 +14°C° 0 mm 3 mps 740 mmHg 66%
    10:00 +16°C° 0 mm 3 mps 740 mmHg 57%
    11:00 +17°C° 0 mm 3 mps 740 mmHg 55%
    12:00 +18°C° 0 mm 3 mps 740 mmHg 53%
    13:00 +18°C° 0 mm 3 mps 740 mmHg 51%
    14:00 +19°C° 0 mm 3 mps 740 mmHg 52%
    15:00 +19°C° 0 mm 3 mps 739 mmHg 54%
    16:00 +19°C° 0 mm 3 mps 739 mmHg 56%
    17:00 +17°C° 0 mm 2 mps 739 mmHg 63%
    18:00 +16°C° 0 mm 2 mps 739 mmHg 70%
    19:00 +14°C° 0 mm 1 mps 738 mmHg 77%
    20:00 +14°C° 0 mm 1 mps 739 mmHg 80%
    21:00 +13°C° 0 mm 1 mps 739 mmHg 82%
    22:00 +12°C° 0 mm 1 mps 739 mmHg 85%
    23:00 +11°C° 0 mm 1 mps 739 mmHg 86%

    25 May, Saturday

    Time Temperature Precipitation Wind Pressure Humidity
    00:00 +11°C° 0 mm 1 mps 739 mmHg 86%
    01:00 +11°C° 0 mm 1 mps 739 mmHg 86%
    02:00 +9°C° 0 mm 2 mps 739 mmHg 87%
    03:00 +9°C° 0 mm 2 mps 739 mmHg 87%
    04:00 +9°C° 0 mm 2 mps 739 mmHg 87%
    05:00 +12°C° 0 mm 2 mps 739 mmHg 81%
    06:00 +14°C° 0 mm 2 mps 739 mmHg 76%
    07:00 +16°C° 0 mm 2 mps 739 mmHg 71%
    08:00 +18°C° 0.1 mm 2 mps 739 mmHg 68%
    09:00 +19°C° 0.1 mm 3 mps 739 mmHg 65%
    10:00 +20°C° 0.1 mm 3 mps 739 mmHg 62%
    11:00 +20°C° 0.8 mm 4 mps 739 mmHg 65%
    12:00 +20°C° 0.8 mm 4 mps 738 mmHg 68%
    13:00 +21°C° 0.8 mm 4 mps 738 mmHg 71%
    14:00 +20°C° 0.5 mm 4 mps 738 mmHg 72%
    15:00 +20°C° 0.5 mm 3 mps 738 mmHg 73%
    16:00 +20°C° 0.5 mm 3 mps 738 mmHg 74%
    17:00 +19°C° 0.3 mm 3 mps 738 mmHg 77%
    18:00 +18°C° 0.3 mm 2 mps 738 mmHg 81%
    19:00 +16°C° 0.3 mm 1 mps 738 mmHg 84%
    20:00 +15°C° 0 mm 1 mps 738 mmHg 86%
    21:00 +14°C° 0 mm 1 mps 739 mmHg 88%
    22:00 +13°C° 0 mm 1 mps 739 mmHg 90%
    23:00 +13°C° 0 mm 1 mps 739 mmHg 90%

    26 May, Sunday

    Time Temperature Precipitation Wind Pressure Humidity
    00:00 +13°C° 0 mm 1 mps 739 mmHg 91%
    01:00 +12°C° 0 mm 0 mps 739 mmHg 91%
    02:00 +12°C° 0 mm 1 mps 739 mmHg 92%
    03:00 +11°C° 0 mm 1 mps 739 mmHg 93%
    04:00 +11°C° 0 mm 1 mps 739 mmHg 94%
    05:00 +12°C° 0 mm 2 mps 739 mmHg 91%
    06:00 +14°C° 0 mm 2 mps 739 mmHg 87%
    07:00 +15°C° 0 mm 2 mps 738 mmHg 84%
    08:00 +16°C° 0 mm 3 mps 738 mmHg 76%
    09:00 +18°C° 0 mm 4 mps 738 mmHg 67%
    10:00 +19°C° 0 mm 5 mps 738 mmHg 59%
    11:00 +19°C° 0 mm 5 mps 738 mmHg 56%
    12:00 +20°C° 0 mm 6 mps 738 mmHg 53%
    13:00 +20°C° 0 mm 6 mps 738 mmHg 50%
    14:00 +20°C° 0 mm 5 mps 737 mmHg 53%
    15:00 +20°C° 0 mm 5 mps 737 mmHg 55%
    16:00 +20°C° 0 mm 5 mps 737 mmHg 57%
    17:00 +18°C° 0 mm 4 mps 737 mmHg 63%
    18:00 +17°C° 0 mm 3 mps 737 mmHg 68%
    19:00 +16°C° 0 mm 2 mps 738 mmHg 74%
    20:00 +15°C° 0 mm 2 mps 738 mmHg 76%
    21:00 +14°C° 0 mm 2 mps 738 mmHg 78%
    22:00 +14°C° 0 mm 2 mps 738 mmHg 79%
    23:00 +13°C° 0 mm 2 mps 738 mmHg 83%

    27 May, Monday

    Time Temperature Precipitation Wind Pressure Humidity
    00:00 +13°C° 0 mm 2 mps 739 mmHg 86%
    01:00 +12°C° 0 mm 2 mps 739 mmHg 89%
    02:00 +12°C° 0 mm 2 mps 739 mmHg 89%
    03:00 +12°C° 0 mm 2 mps 739 mmHg 88%
    04:00 +11°C° 0 mm 3 mps 739 mmHg 88%
    05:00 +12°C° 0 mm 3 mps 739 mmHg 83%
    06:00 +14°C° 0 mm 3 mps 739 mmHg 78%
    07:00 +17°C° 0 mm 3 mps 739 mmHg 74%
    08:00 +18°C° 0 mm 3 mps 739 mmHg 70%
    09:00 +20°C° 0 mm 3 mps 739 mmHg 66%
    10:00 +21°C° 0 mm 3 mps 739 mmHg 62%
    11:00 +21°C° 0.3 mm 3 mps 739 mmHg 63%
    12:00 +22°C° 0.3 mm 3 mps 738 mmHg 64%
    13:00 +24°C° 0.3 mm 3 mps 738 mmHg 65%
    14:00 +24°C° 0.4 mm 3 mps 738 mmHg 68%
    15:00 +24°C° 0.4 mm 3 mps 738 mmHg 70%
    16:00 +24°C° 0.4 mm 3 mps 738 mmHg 73%
    17:00 +21°C° 0.4 mm 2 mps 738 mmHg 76%
    18:00 +20°C° 0.4 mm 2 mps 738 mmHg 80%
    19:00 +20°C° 0.4 mm 1 mps 738 mmHg 83%
    20:00 +19°C° 0.4 mm 1 mps 738 mmHg 85%
    21:00 +17°C° 0.4 mm 2 mps 738 mmHg 88%
    22:00 +16°C° 0.4 mm 2 mps 738 mmHg 90%
    23:00 +15°C° 0 mm 2 mps 738 mmHg 91%
    Show more